TimePDT,TemperatureF,Dew PointF,Humidity,Sea Level PressureIn,VisibilityMPH,Wind Direction,Wind SpeedMPH,Gust SpeedMPH,PrecipitationIn,Events,Conditions,WindDirDegrees,DateUTC
12:54 AM,80.1,34.0,19,29.79,10.0,Calm,Calm,-,N/A,,Clear,0,2013-08-28 07:54:00
1:54 AM,78.1,37.9,24,29.78,10.0,Calm,Calm,-,N/A,,Clear,0,2013-08-28 08:54:00
2:54 AM,75.0,39.0,27,29.79,10.0,Calm,Calm,-,N/A,,Clear,0,2013-08-28 09:54:00
3:54 AM,75.0,42.1,31,29.79,10.0,Calm,Calm,-,N/A,,Clear,0,2013-08-28 10:54:00
4:54 AM,73.0,43.0,34,29.80,10.0,Calm,Calm,-,N/A,,Clear,0,2013-08-28 11:54:00
5:54 AM,72.0,48.9,44,29.81,10.0,North,3.5,-,N/A,,Clear,10,2013-08-28 12:54:00
6:54 AM,71.1,48.9,45,29.84,10.0,SSE,4.6,-,N/A,,Clear,160,2013-08-28 13:54:00
7:54 AM,73.0,50.0,44,29.86,10.0,SSE,3.5,-,N/A,,Clear,150,2013-08-28 14:54:00
8:54 AM,75.9,52.0,43,29.87,10.0,Calm,Calm,-,N/A,,Clear,0,2013-08-28 15:54:00
9:54 AM,78.1,52.0,40,29.87,10.0,WSW,4.6,-,N/A,,Clear,240,2013-08-28 16:54:00
10:54 AM,82.0,53.1,37,29.87,10.0,Calm,Calm,-,N/A,,Clear,0,2013-08-28 17:54:00
11:54 AM,84.0,51.1,32,29.86,10.0,WSW,5.8,-,N/A,,Clear,240,2013-08-28 18:54:00
12:54 PM,88.0,50.0,27,29.84,10.0,West,4.6,-,N/A,,Clear,270,2013-08-28 19:54:00
1:54 PM,90.0,50.0,25,29.82,10.0,Variable,6.9,-,N/A,,Clear,0,2013-08-28 20:54:00
2:54 PM,93.0,50.0,23,29.80,10.0,West,9.2,-,N/A,,Clear,280,2013-08-28 21:54:00
3:54 PM,93.9,51.1,23,29.78,10.0,WNW,10.4,-,N/A,,Clear,300,2013-08-28 22:54:00
4:54 PM,95.0,51.1,22,29.78,10.0,WNW,12.7,-,N/A,,Clear,300,2013-08-28 23:54:00
5:54 PM,93.9,52.0,24,29.78,10.0,NW,12.7,-,N/A,,Clear,310,2013-08-29 00:54:00
6:54 PM,93.0,53.1,26,29.78,10.0,WNW,8.1,-,N/A,,Clear,290,2013-08-29 01:54:00
7:54 PM,89.1,55.0,31,29.80,10.0,Calm,Calm,-,N/A,,Clear,0,2013-08-29 02:54:00
8:54 PM,86.0,55.9,36,29.82,10.0,NNW,3.5,-,N/A,,Clear,340,2013-08-29 03:54:00
9:54 PM,87.1,55.0,33,29.85,10.0,Calm,Calm,-,N/A,,Clear,0,2013-08-29 04:54:00
10:54 PM,81.0,52.0,36,29.86,10.0,ENE,3.5,-,N/A,,Clear,60,2013-08-29 05:54:00
11:54 PM,84.0,54.0,35,29.87,10.0,Calm,Calm,-,N/A,,Clear,0,2013-08-29 06:54:00